www.pogodaiklimat.ru

Погода и климат >> Архив погоды >> Индия >> Чхаттисгарх >> Амбикапур


ПОГОДА в Амбикапуре

  • Прогноз погоды в Амбикапуре
  • Монитор погоды в Амбикапуре

АРХИВ ПОГОДЫ в Амбикапуре

Время (UTC), дата Ветер
(напр.,м/с)
 
Видим.   Явления Облачность Т
(С)
Тd
(С)
f
(%)
Тe
(С)
Тes
(С)
Комфортность P
(гПа)
Po
(гПа)
Тmin
(С)
Tmax
(С)
R
(мм)
R24
(мм)
S
(см)
09 12.07 штиль 0 4000 м 6/5 600 м
[Cu Sc Ac trans]
+30.0 +23.5 68 +41 +49 опасность
перегрева
1001.8 935.9
12 12.07 Ю 1 4000 м {дождь} 6/5 600 м
[Sc Ac trans]
+28.4 +25.1 82 +41 +42 опасность
перегрева
1001.7 935.4 +30.2 3
15 12.07 штиль 0 4000 м 6/4 600 м
[Sc Ac trans]
+26.8 +24.8 89 +38 +38 очень
душно
1003.9 937.2 3
18 12.07 штиль 0 4000 м 5/4 750 м
[Sc Ac trans]
+25.8 +24.4 92 +36 +36 очень
душно
1004.8 937.9 3
21 12.07 штиль 0 4000 м 5/3 750 м
[Sc Ac trans]
+24.6 +23.5 94 +33 +33 очень
душно
1003.7 936.7 3
00 13.07 штиль 0 4000 м 6/4 750 м
[Sc Ac trans]
+24.2 +23.3 95 +32 +32 очень
душно
1003.9 936.9 3
03 13.07 Ю 1 4000 м 6/4 600 м
[Sc Ac trans]
+26.0 +24.3 90 +36 +42 очень
душно
1005.0 938.2 +23.8 3
06 13.07 Ю 1 4000 м 8/5 600 м
[Cu Sc Ac trans]
+28.6 +24.1 77 +40 +48 очень
душно
1004.3 938.0
09 13.07 Ю 1 4000 м 6/4 750 м
[Sc Ac trans]
+30.5 +23.1 65 +41 +49 опасность
перегрева
1002.2 936.4
12 13.07 Ю 1 4000 м 6/4 750 м
[Sc Ac trans]
+30.0 +23.5 68 +41 +41 опасность
перегрева
1000.6 934.9 +31.1
15 13.07 штиль 0 4000 м 4/4 750 м
[Sc]
+28.4 +24.2 78 +40 +40 очень
душно
1002.4 936.4
18 13.07 штиль 0 4000 м 8/4 750 м
[Sc Ac trans]
+27.2 +25.0 88 +39 +39 очень
душно
1002.4 936.1
21 13.07 штиль 0 4000 м 6/3 750 м
[Sc Ac trans]
+26.4 +24.7 90 +37 +37 очень
душно
1002.0 935.5
00 14.07 штиль 0 4000 м 5/0
[Ac trans Ci fib]
+25.4 +24.0 92 +35 +35 очень
душно
1001.8 935.1
03 14.07 штиль 0 4000 м 6/4 750 м
[Sc Ac trans]
+27.6 +23.9 80 +38 +45 очень
душно
1002.8 936.5 +24.7
06 14.07 Ю 1 4000 м 6/3 750 м
[Sc Ac trans]
+29.0 +23.1 71 +39 +52 опасность
солнечного
удара
1002.3 936.3
09 14.07 СЗ 2 4000 м 6/4 750 м
[Sc Ac trans]
+31.8 +22.8 59 +42 +49 опасность
перегрева
1000.3 934.7
12 14.07 З 1 4000 м 5/4 750 м
[Sc Ac trans]
+31.2 +23.0 62 +41 +42 опасность
перегрева
999.1 933.5 +31.8
15 14.07 штиль 0 4000 м 5/4 750 м
[Sc Ac trans]
+28.4 +24.2 78 +40 +40 очень
душно
1002.6 936.3
18 14.07 штиль 0 4000 м 4/3 750 м
[Sc Ac trans]
+27.6 +24.5 83 +39 +39 очень
душно
1001.7 935.1
21 14.07 штиль 0 4000 м 5/4 750 м
[Sc Ac trans]
+27.0 +24.5 86 +38 +38 очень
душно
1000.1 933.5
00 15.07 штиль 0 4000 м 5/4 750 м
[Sc Ac trans]
+25.2 +23.5 90 +34 +34 очень
душно
1000.9 933.9
03 15.07 З 1 4000 м 4/3 750 м
[Sc Ac trans]
+27.4 +23.7 80 +37 +46 очень
душно
1001.7 935.1 +24.6
06 15.07 СЗ 1 4000 м 4/3 750 м
[Sc Ac trans]
+30.4 +22.8 64 +40 +57 опасность
солнечного
удара
1001.2 935.3
09 15.07 СЗ 2 4000 м 5/3 750 м
[Sc Ci fib]
+31.8 +22.8 59 +42 +52 опасность
перегрева
999.2 934.0
12 15.07 З 1 4000 м 5/5 750 м
[Cu Sc]
+31.4 +22.3 59 +41 +42 опасность
перегрева
997.8 932.7 +32.1
15 15.07 Ю 1 4000 м 8/4 750 м
[Sc Ac trans]
+27.6 +23.9 80 +38 +38 очень
душно
1000.4 934.3
21 15.07 штиль 0 4000 м 5/3 800 м
[Sc Ac trans]
+26.4 +24.1 87 +37 +37 очень
душно
1000.2 1033.8
00 16.07 штиль 0 4000 м 6/3 750 м
[Sc Ac trans]
+25.6 +23.6 89 +35 +35 очень
душно
999.8 933.2
03 16.07 З 1 4000 м 3/0
[Ci fib]
+27.6 +23.4 78 +37 +48 очень
душно
1003.1 936.8 +23.9
06 16.07 Ю 1 4000 м 3/3 900 м
[Cu hum]
+31.0 +22.5 61 +41 +58 опасность
перегрева
1002.6 937.0
09 16.07 штиль 0 4000 м 4/3 750 м
[Sc Ac trans]
+33.2 +21.8 51 +41 +54 опасность
перегрева
1000.7 935.5
12 16.07 штиль 0 4000 м 4/3 750 м
[Sc Ac trans]
+31.0 +23.1 63 +41 +42 опасность
перегрева
999.7 934.1 +33.2
15 16.07 штиль 0 4000 м 4/4 750 м
[Sc]
+29.6 +23.7 71 +41 +41 опасность
перегрева
1002.0 936.2
18 16.07 штиль 0 4000 м 8/4 750 м
[Sc Ac trans]
+27.2 +22.9 77 +36 +36 очень
душно
1003.0 936.7
21 16.07 штиль 0 4000 м 8/4 750 м
[Sc Ac trans]
+26.4 +22.7 80 +35 +35 очень
душно
1002.1 935.6
00 17.07 штиль 0 4000 м 3/0
[Ac trans]
+25.8 +22.6 83 +34 +34 очень
душно
1002.3 935.6
03 17.07 штиль 0 4000 м 1/0
[Ac trans]
+28.6 +23.5 74 +39 +52 опасность
солнечного
удара
1003.0 936.7 +25.2
06 17.07 штиль 0 4000 м 4/3 750 м
[Sc Ac trans]
+30.8 +22.9 63 +41 +60 опасность
перегрева
1002.3 936.4
09 17.07 З 1 4000 м 6/5 750 м
[Cu Sc Ac trans]
+32.6 +21.4 52 +41 +48 опасность
перегрева
1000.0 935.0
12 17.07 В 1 4000 м слаб. дождь {гроза} 9/5 600 м
[Sc Ac trans]
+25.0 +22.4 86 +33 +33 очень
душно
1001.4 934.6 +33.5 0.4
15 17.07 штиль 0 4000 м {дождь} 9/5 750 м
[Sc Ac trans]
+26.0 +23.2 85 +35 +35 очень
душно
1002.3 935.6 0.5
18 17.07 штиль 0 4000 м 9/5 750 м
[Sc Ac trans]
+26.4 +23.6 85 +36 +36 очень
душно
1002.8 936.3 0.5
21 17.07 штиль 0 4000 м 8/4 750 м
[Sc Ac trans]
+26.2 +23.7 86 +36 +36 очень
душно
1002.0 935.5 0.5
00 18.07 штиль 0 4000 м 6/3 750 м
[Sc Ac trans]
+26.0 +24.0 89 +36 +36 очень
душно
1002.3 935.6 0.5
03 18.07 штиль 0 4000 м 1/0
[Ci fib]
+28.0 +23.8 78 +39 +52 опасность
солнечного
удара
1001.9 935.6 +24.5 0.5
06 18.07 штиль 0 4000 м 3/0
[Ci fib]
+30.6 +22.4 62 +40 +68 опасность
солнечного
удара
1001.0 935.4
09 18.07 СЗ 2 4000 м в посл. час дождь 6/5 750 м
[Cu Sc Ac trans]
+32.8 +22.6 55 +42 +49 опасность
перегрева
998.9 933.9 0.2
12 18.07 штиль 0 4000 м {дождь} 5/5 600 м
[Cu Sc Ac trans]
+28.0 +25.8 88 +42 +43 опасность
перегрева
999.2 933.1 +33.0 4
15 18.07 штиль 0 4000 м {дождь} 6/5 600 м
[Sc Ac trans]
+24.6 +23.7 95 +33 +33 очень
душно
1002.7 935.5 14
18 18.07 штиль 0 4000 м 6/5 600 м
[St Ac trans]
+25.2 +24.1 94 +35 +35 очень
душно
1003.1 936.1 14
21 18.07 штиль 0 4000 м 5/5 600 м
[Sc]
+24.8 +23.9 95 +34 +34 очень
душно
1002.7 935.5 14
00 19.07 штиль 0 4000 м 8/8 600 м
[Sc]
+24.6 +23.7 95 +33 +33 очень
душно
1002.1 934.9 14
03 19.07 штиль 0 4000 м 5/3 750 м
[Sc Ac trans]
+27.4 +24.6 85 +39 +47 очень
душно
1002.5 936.2 +23.5 14
06 19.07 штиль 0 4000 м 3/3 750 м
[Sc]
+30.2 +21.6 60 +38 +59 опасность
солнечного
удара
1001.5 935.9

 

Местоположение метеостанции Амбикапур (Чхаттисгарх, Индия): широта 23.17 долгота 83.25 высота над уровнем моря 611 м.

В архиве по умолчанию представлена погода в Амбикапуре за последнюю неделю. Архивные данные за месяц целиком и за предыдущие месяцы, начиная с января 2011 года, Вы можете получить, выбрав интересующий диапазон дат из раскрывающегося списка и нажав кнопку "Ввод!".


*Определитесь, кто Вы:
робот инопланетянин человек

Внимание! Время в таблицах - всемирное. Для получения местного времени необходимо прибавить поправку, которая равна 5.5 ч.

Смотрите также архив погоды в соседних городах и на ближайших метеорологических станциях:

Погода в Далтонгандже (Джаркханд, Индия) (129 км)
Погода в Сундаргархе (Орисса, Индия) (142 км)
Погода в Пендра-роуде (Чхаттисгарх, Индия) (145 км)
Погода в Биласпуре (Чхаттисгарх, Индия) (163 км)
Погода в Джхарсугуде (Орисса, Индия) (163 км)
Погода в Харакаде (Орисса, Индия) (194 км)
Погода в Райпур аэропорту (Чхаттисгарх, Индия) (195 км)
Погода в Сидхи (Мадхья-Прадеш, Индия) (198 км)
Погода в Самбалпуре (Орисса, Индия) (203 км)
Погода в Ранчи (Джаркханд, Индия) (212 км)

Пояснения к столбцам:

Ветер - указаны скорость ветра в м/с - средняя за 10 мин, порывы в срок и между сроками (в фигурных скобках) и направление, откуда дует ветер: С - северный, СВ - северо-восточный, В - восточный, ЮВ - юго-восточный, Ю - южный, ЮЗ - юго-западный, З - западный, СЗ - северо-западный.
Видимость - горизонтальная дальность видимости в метрах или километрах. При видимости от 1 до 10 км при отсутствии осадков обычно наблюдается дымка, при ухудшении видимости до 1 км и менее - туман. В сухую погоду видимость может ухудшаться дымом, пылью или мглою.
Явления - указаны атмосферные явления, наблюдавшиеся в срок или в последний час перед сроком; фигурными скобками обозначены явления, наблюдавшиеся между сроками (за 1-3 часа до срока); квадратными скобками обозначены град или гололедные отложения с указанием их диаметра в мм.
Облачность - указаны через наклонную черту общая и нижняя облачность в баллах и высота нижней границы облаков в метрах; квадратными скобками обозначены формы облаков: Ci - перистые, Cs - перисто-слоистые, Cc - перисто-кучевые, Ac - высококучевые, As - высокослоистые, Sc - слоисто-кучевые, Ns - слоисто-дождевые, Cu - кучевые, Cb - кучево-дождевые. Подробнее классификацию облаков см. в Атласе облаков (PDF).
T - Температура воздуха - температура, измеренная на высоте 2 м над землей.
Td - Температура точки росы - температура, при понижении до которой содержащийся в воздухе водяной пар достигнет насыщения.
f - Относительная влажность воздуха - влажноcть воздуха, измеренная на высоте 2 м над землей.
Te - Эффективная температура - температура, которую ощущает одетый по сезону человек в тени. Характеристика душности погоды. При расчете учитывается влияние влажности воздуха и скорости ветра на теплоощущения человека.
Tes - Эффективная температура на солнце - температура, которую ощущает человек, с поправкой на солнечный нагрев. Характеристика знойности погоды. Зависит от высоты солнца над горизонтом, облачности и скорости ветра. Ночью, в пасмурную погоду, а также при ветре 12 м/с и более поправка равна нулю.
P - Атмосферное давление - приведенное к уровню моря атмосферное давление.
Po - Атмосферное давление - измеренное на уровне метеостанции атмосферное давление.
Tmin - Минимальная температура - минимум температуры воздуха на высоте 2 м над землей.
Tmax - Максимальная температура - максимум температуры воздуха на высоте 2 м над землей.
R - Количество осадков - Количество выпавших осадков за период времени, мм. При наведении курсора мыши на число - период времени, за который выпало указанное количество осадков.
R24 - Количество осадков - Количество выпавших осадков за 24 часа, мм.
S - Снежный покров - Высота снежного покрова, см. При наведении курсора мыши на число - состояние снежного покрова и степень покрытия местности в баллах.